Location: Newark
(50.0306°N, 2.3272°E)
Time: 01:31:50
(UTC+00:00)

Vanguard 1 Rocket - Pass Details

Date: 19 December 2019
Orbit: 651 x 4226 km, 34.3° (Epoch: 28 January)

Event Time Altitude Azimuth Distance (km) Brightness Sun altitude
Rises 15:13:33 0° 187° (S) 8,272 13.2 3.6°
Reaches altitude 10° 15:22:19 10° 172° (S) 7,416 12.6 2.6°
Maximum altitude 15:36:55 19° 137° (SE) 6,402 11.7 0.8°
Drops below altitude 10° 15:49:31 10° 102° (ESE) 6,420 11.3 -0.8°
Sets 15:55:55 0° 87° (E) 6,875 11.3 -1.6°
